EW1407 Weather Reports


Display with metric or nautical units.
time (UTC)temp
F
wind
direction
speed
MPH
gust
MPH
rain 1hr
in
rain 24hr
in
rain mn
in
humidity
%
barometer
mb
20260906093516 65 125 0.0 3.0 0.00 0.00 0.00 85 1017.7
20260906093011 65 102 1.0 3.0 0.00 0.00 0.00 85 1017.7
20260906092511 65 96 4.0 4.0 0.00 0.00 0.00 85 1017.8
20260906092006 65 29 3.0 4.0 0.00 0.00 0.00 85 1017.7
20260906091501 65 69 0.0 3.0 0.00 0.00 0.00 85 1018.0
20260906090958 65 67 1.0 3.0 0.00 0.00 0.00 84 1017.9
20260906090453 65 229 4.0 4.0 0.00 0.00 0.00 84 1017.8
20260906085953 65 66 0.0 3.0 0.00 0.00 0.00 84 1017.8
20260906085452 66 88 0.0 5.0 0.00 0.00 0.00 84 1018.0
20260906084951 66 85 0.0 2.0 0.00 0.00 0.00 84 1017.9
20260906084446 66 126 2.0 4.0 0.00 0.00 0.00 84 1017.8
20260906083945 66 67 2.0 5.0 0.00 0.00 0.00 84 1017.9
20260906083441 66 112 1.0 3.0 0.00 0.00 0.00 84 1017.9
20260906082940 66 82 1.0 4.0 0.00 0.00 0.00 84 1017.4
20260906082436 66 53 1.0 3.0 0.00 0.00 0.00 83 1017.7
20260906081931 66 2 1.0 5.0 0.00 0.00 0.00 85 1017.7
20260906081426 66 73 1.0 4.0 0.00 0.00 0.00 87 1017.6
20260906080922 67 27 0.0 3.0 0.00 0.00 0.00 87 1017.7
20260906080419 67 77 1.0 2.0 0.00 0.00 0.00 86 1017.7
20260906075918 67 38 0.0 3.0 0.00 0.00 0.00 86 1017.8
20260906075414 67 29 0.0 2.0 0.00 0.00 0.00 86 1017.8
20260906074909 67 17 2.0 2.0 0.00 0.00 0.00 87 1017.7
20260906074408 68 14 2.0 2.0 0.00 0.00 0.00 88 1017.7
20260906073907 68 73 2.0 2.0 0.00 0.00 0.00 88 1017.8
20260906073402 68 87 2.0 4.0 0.00 0.00 0.00 87 1017.7
20260906072859 68 66 5.0 8.0 0.00 0.00 0.00 91 1017.7
20260906072354 68 122 0.0 3.0 0.00 0.00 0.00 92 1017.8
20260906071850 68 69 3.0 3.0 0.00 0.00 0.00 93 1017.9
20260906071345 69 85 2.0 3.0 0.00 0.00 0.00 93 1017.9
20260906070841 69 62 0.0 4.0 0.00 0.00 0.00 93 1018.0
20260906070337 69 112 4.0 5.0 0.00 0.00 0.00 93 1017.9
20260906065832 69 142 1.0 3.0 0.00 0.00 0.00 93 1017.7
20260906065326 69 126 2.0 3.0 0.00 0.00 0.00 93 1017.9
20260906064823 69 62 0.0 4.0 0.00 0.00 0.00 93 1017.7
20260906064319 69 124 1.0 2.0 0.00 0.00 0.00 94 1017.6
20260906063818 69 86 0.0 1.0 0.00 0.00 0.00 94 1017.7
20260906063314 69 103 0.0 3.0 0.00 0.00 0.00 94 1017.8
20260906062809 69 23 0.0 2.0 0.00 0.00 0.00 94 1017.6
20260906062308 69 39 0.0 1.0 0.00 0.00 0.00 94 1017.6
20260906061804 69 99 1.0 1.0 0.00 0.00 0.00 94 1017.7
20260906061300 69 11 2.0 2.0 0.00 0.00 0.00 93 1017.6
20260906060755 69 119 0.0 2.0 0.00 0.00 0.00 94 1017.6
20260906060253 69 124 0.0 2.0 0.00 0.00 0.00 93 1017.4
20260906055748 69 95 1.0 2.0 0.00 0.00 0.00 93 1017.6
20260906055243 69 45 1.0 4.0 0.00 0.00 0.00 93 1017.5
20260906054738 69 6 1.0 3.0 0.00 0.00 0.00 93 1017.5
20260906054234 69 32 2.0 3.0 0.00 0.00 0.00 93 1017.5
20260906053730 69 97 2.0 3.0 0.00 0.00 0.00 92 1017.3
20260906053226 69 8 2.0 5.0 0.00 0.00 0.00 92 1017.3
20260906052720 70 33 0.0 4.0 0.00 0.00 0.00 92 1017.2
20260906052217 70 82 2.0 2.0 0.00 0.00 0.00 92 1017.2
20260906051714 70 122 0.0 3.0 0.00 0.00 0.00 91 1017.2
20260906051213 70 32 0.0 2.0 0.00 0.00 0.00 91 1017.1
20260906050708 71 176 1.0 1.0 0.00 0.00 0.00 90 1017.3
20260906050204 71 19 2.0 4.0 0.00 0.00 0.00 90 1017.2
20260906045702 71 107 0.0 2.0 0.00 0.00 0.00 89 1017.2
20260906045157 71 84 0.0 2.0 0.00 0.00 0.00 89 1017.1
20260906044653 71 23 0.0 3.0 0.00 0.00 0.00 88 1017.0
20260906044148 71 35 0.0 2.0 0.00 0.00 0.00 89 1017.0
20260906043644 71 70 2.0 4.0 0.00 0.00 0.00 88 1016.8
20260906043140 71 22 0.0 2.0 0.00 0.00 0.00 88 1016.9
20260906042639 71 141 1.0 2.0 0.00 0.00 0.00 88 1017.0
20260906042133 71 4 0.0 3.0 0.00 0.00 0.00 89 1017.0
20260906041629 71 133 2.0 4.0 0.00 0.00 0.00 88 1016.9
20260906041130 71 147 0.0 2.0 0.00 0.00 0.00 88 1016.7
20260906040625 71 346 2.0 6.0 0.00 0.00 0.00 88 1016.9
20260906040121 71 20 1.0 2.0 0.00 0.01 0.01 88 1016.5
20260906035615 72 156 0.0 4.0 0.00 0.01 0.01 88 1016.6
20260906035112 72 77 1.0 5.0 0.00 0.01 0.01 88 1016.8
20260906034611 72 349 2.0 3.0 0.00 0.01 0.01 87 1016.5
20260906034106 72 49 2.0 3.0 0.00 0.01 0.01 87 1016.7
20260906033602 72 106 2.0 4.0 0.00 0.01 0.01 87 1016.7
20260906033057 72 89 0.0 2.0 0.00 0.01 0.01 87 1016.7
20260906032554 72 131 0.0 2.0 0.00 0.01 0.01 87 1016.5
20260906032053 72 129 0.0 2.0 0.00 0.01 0.01 87 1016.3
20260906031549 72 87 0.0 4.0 0.00 0.01 0.01 86 1016.4
20260906031044 72 128 1.0 3.0 0.00 0.01 0.01 86 1016.5
20260906030544 72 45 1.0 3.0 0.00 0.01 0.01 86 1016.4
20260906030044 72 160 0.0 1.0 0.00 0.01 0.01 87 1016.5
20260906025544 72 21 1.0 2.0 0.00 0.01 0.01 86 1016.3
20260906025042 72 93 2.0 2.0 0.00 0.01 0.01 87 1016.4
20260906024537 72 180 0.0 3.0 0.00 0.01 0.01 86 1016.3
20260906024037 72 38 1.0 2.0 0.00 0.01 0.01 86 1016.1
20260906023533 72 221 0.0 3.0 0.00 0.01 0.01 86 1016.4
20260906023028 72 19 1.0 3.0 0.00 0.01 0.01 86 1016.4
20260906022523 72 75 2.0 5.0 0.00 0.01 0.01 86 1016.3
20260906022019 72 81 2.0 4.0 0.00 0.01 0.01 85 1016.3
20260906021515 73 65 1.0 3.0 0.00 0.01 0.01 86 1016.2
20260906021008 73 15 3.0 3.0 0.00 0.01 0.01 86 1016.1
20260906020507 73 128 2.0 5.0 0.00 0.01 0.01 86 1016.3
20260906020007 73 335 0.0 3.0 0.00 0.01 0.01 85 1016.3
20260906015506 73 19 0.0 2.0 0.00 0.01 0.01 86 1016.1
20260906015007 73 335 0.0 2.0 0.00 0.01 0.01 86 1016.4
20260906014501 73 120 0.0 2.0 0.00 0.01 0.01 86 1016.0
20260906013957 73 104 1.0 3.0 0.00 0.01 0.01 85 1016.1
20260906013452 73 81 2.0 2.0 0.00 0.01 0.01 85 1016.1
20260906012943 73 53 0.0 2.0 0.00 0.01 0.01 85 1016.2
20260906012442 73 7 1.0 2.0 0.00 0.01 0.01 86 1016.0
20260906011942 73 356 2.0 3.0 0.00 0.01 0.01 86 1016.0
20260906011437 73 38 2.0 4.0 0.00 0.01 0.01 86 1015.8
20260906010932 73 89 2.0 3.0 0.00 0.01 0.01 87 1015.7
20260906010428 73 104 2.0 4.0 0.00 0.01 0.01 87 1015.7
20260906005924 73 87 1.0 4.0 0.00 0.01 0.01 87 1015.5
20260906005423 73 61 2.0 3.0 0.00 0.01 0.01 87 1015.6
20260906004922 74 23 2.0 4.0 0.00 0.01 0.01 87 1015.5
20260906004416 74 56 2.0 4.0 0.00 0.01 0.01 87 1015.3
20260906003912 74 62 0.0 4.0 0.00 0.01 0.01 86 1015.3
20260906003407 74 250 1.0 3.0 0.00 0.01 0.01 86 1015.3
20260906002903 74 64 3.0 3.0 0.00 0.01 0.01 86 1015.1
20260906002402 75 99 2.0 4.0 0.00 0.01 0.01 85 1015.3
20260906001857 75 337 2.0 6.0 0.00 0.01 0.01 84 1015.0
20260906001354 75 94 2.0 6.0 0.00 0.01 0.01 84 1015.2
20260906000854 75 354 1.0 5.0 0.00 0.01 0.01 84 1015.0
20260906000355 76 20 2.0 4.0 0.00 0.01 0.01 83 1015.3
20260905235848 76 69 1.0 8.0 0.00 0.01 0.01 82 1015.1
20260905235343 77 83 3.0 5.0 0.00 0.01 0.01 82 1015.0
20260905234838 77 128 0.0 5.0 0.00 0.01 0.01 81 1015.0
20260905234333 78 71 2.0 7.0 0.00 0.01 0.01 81 1014.9
20260905233828 78 93 1.0 3.0 0.00 0.01 0.01 81 1014.9
20260905233323 78 315 0.0 3.0 0.00 0.01 0.01 81 1014.8
20260905232822 78 48 2.0 4.0 0.00 0.01 0.01 80 1014.6
20260905232319 79 92 1.0 3.0 0.00 0.01 0.01 80 1014.5
20260905231814 79 147 2.0 3.0 0.00 0.01 0.01 79 1014.5
20260905231309 80 95 2.0 3.0 0.00 0.01 0.01 77 1014.4
20260905230805 81 320 0.0 3.0 0.00 0.01 0.01 76 1014.5
20260905230303 81 340 2.0 3.0 0.00 0.01 0.01 76 1014.3
20260905225803 81 154 0.0 3.0 0.00 0.01 0.01 76 1014.5
20260905225258 82 0 2.0 6.0 0.00 0.01 0.01 73 1014.3
20260905224757 83 359 5.0 6.0 0.00 0.01 0.01 72 1014.3
20260905224253 84 287 2.0 4.0 0.00 0.01 0.01 71 1014.1
20260905223748 84 28 1.0 1.0 0.00 0.01 0.01 70 1013.9
20260905223246 84 204 1.0 5.0 0.00 0.01 0.01 72 1013.9
20260905222741 83 13 0.0 3.0 0.00 0.01 0.01 74 1014.0
20260905222240 83 315 2.0 3.0 0.00 0.01 0.01 73 1013.9
20260905221736 82 281 2.0 4.0 0.00 0.01 0.01 74 1013.8
20260905221233 82 332 2.0 3.0 0.00 0.01 0.01 75 1013.8
20260905220728 83 225 0.0 6.0 0.00 0.01 0.01 73 1013.8
20260905220224 84 166 2.0 5.0 0.00 0.01 0.01 73 1013.7
20260905215723 84 227 0.0 3.0 0.00 0.01 0.01 73 1013.6
20260905215219 84 313 0.0 6.0 0.00 0.01 0.01 73 1013.7
20260905214715 84 324 0.0 4.0 0.00 0.01 0.01 73 1013.7
20260905214210 84 133 2.0 4.0 0.00 0.01 0.01 73 1013.5
20260905213705 85 340 1.0 2.0 0.00 0.01 0.01 73 1013.5
20260905213201 85 224 0.0 3.0 0.00 0.01 0.01 73 1013.6
20260905212656 85 91 1.0 4.0 0.00 0.01 0.01 73 1013.4
20260905212155 85 134 1.0 2.0 0.00 0.01 0.01 73 1013.7
20260905211650 85 309 0.0 2.0 0.00 0.01 0.01 74 1013.6
20260905211146 84 347 0.0 2.0 0.00 0.01 0.01 75 1013.5
20260905210643 84 11 0.0 5.0 0.00 0.01 0.01 75 1013.7
20260905210142 84 111 2.0 2.0 0.00 0.01 0.01 77 1013.7
20260905205641 83 124 2.0 3.0 0.00 0.01 0.01 80 1013.8
20260905205136 81 264 0.0 0.0 0.00 0.01 0.01 83 1013.7
20260905204635 81 103 0.0 2.0 0.00 0.01 0.01 84 1013.8
20260905204131 81 276 0.0 2.0 0.02 0.01 0.01 83 1013.6
20260905203631 81 18 1.0 2.0 0.07 0.01 0.01 82 1013.8
20260905203126 83 314 1.0 2.0 0.05 0.01 0.01 78 1013.6
20260905202622 84 243 0.0 4.0 0.00 0.00 0.00 74 1013.4
20260905202117 85 306 0.0 3.0 0.00 0.00 0.00 71 1013.7
20260905201613 86 324 2.0 2.0 0.00 0.00 0.00 68 1013.8
20260905201112 87 182 2.0 2.0 0.00 0.00 0.00 67 1013.7
20260905200608 87 174 1.0 2.0 0.00 0.00 0.00 66 1013.7
20260905195601 88 219 0.0 2.0 0.00 0.00 0.00 65 1014.0
20260905195057 88 292 2.0 2.0 0.00 0.00 0.00 64 1013.9
20260905194556 87 309 0.0 2.0 0.00 0.00 0.00 71 1013.9
20260905194056 87 343 2.0 2.0 0.00 0.00 0.00 69 1013.9
20260905193551 86 33 1.0 3.0 0.00 0.00 0.00 69 1013.9
20260905193046 86 19 2.0 2.0 0.00 0.00 0.00 71 1014.2
20260905192541 86 157 1.0 2.0 0.00 0.00 0.00 70 1014.1
20260905192038 84 14 0.0 4.0 0.00 0.00 0.00 74 1014.3
20260905191536 84 89 0.0 2.0 0.00 0.00 0.00 72 1014.3
20260905191036 85 103 0.0 3.0 0.00 0.00 0.00 71 1014.5
20260905190533 84 326 0.0 2.0 0.00 0.00 0.00 74 1014.3
20260905190028 84 233 2.0 2.0 0.00 0.00 0.00 75 1014.3
20260905185527 83 230 0.0 2.0 0.00 0.00 0.00 75 1014.4
20260905185027 84 135 0.0 2.0 0.00 0.00 0.00 74 1014.5
20260905184526 83 278 1.0 2.0 0.00 0.00 0.00 77 1014.5
20260905184025 83 269 2.0 3.0 0.00 0.00 0.00 76 1014.3
20260905183520 82 224 1.0 3.0 0.00 0.00 0.00 77 1014.6
20260905183015 82 222 2.0 2.0 0.00 0.00 0.00 76 1014.8
20260905182514 82 260 2.0 3.0 0.00 0.00 0.00 79 1015.0
20260905182009 81 252 0.0 3.0 0.00 0.00 0.00 78 1015.0
20260905181504 80 212 2.0 4.0 0.00 0.00 0.00 81 1014.5
20260905181003 80 206 1.0 5.0 0.00 0.00 0.00 80 1014.9
20260905180458 81 216 4.0 7.0 0.00 0.00 0.00 78 1015.0
20260905175953 81 227 1.0 3.0 0.00 0.00 0.00 78 1015.0
20260905175452 82 303 0.0 2.0 0.00 0.00 0.00 76 1015.0
20260905174949 82 278 2.0 2.0 0.00 0.00 0.00 77 1014.9
20260905174449 82 35 2.0 3.0 0.00 0.00 0.00 76 1014.9
20260905173945 82 197 2.0 3.0 0.00 0.00 0.00 76 1014.8
20260905173441 82 262 3.0 4.0 0.00 0.00 0.00 75 1014.9
20260905172936 83 250 3.0 4.0 0.00 0.00 0.00 74 1014.9
20260905172434 83 260 2.0 5.0 0.00 0.00 0.00 74 1014.9
20260905171930 82 6 2.0 4.0 0.00 0.00 0.00 76 1015.0
20260905171426 81 271 2.0 5.0 0.00 0.00 0.00 79 1015.2
20260905170922 81 222 4.0 5.0 0.00 0.00 0.00 77 1015.0
20260905170418 81 196 3.0 5.0 0.00 0.00 0.00 77 1015.1
20260905165918 81 203 3.0 6.0 0.00 0.00 0.00 77 1015.1
20260905165413 82 211 3.0 6.0 0.00 0.00 0.00 76 1015.4
20260905164908 81 265 2.0 4.0 0.00 0.00 0.00 78 1015.2
20260905164402 80 206 2.0 4.0 0.00 0.00 0.00 79 1015.4
20260905163857 80 183 2.0 4.0 0.00 0.00 0.00 77 1015.3
20260905163354 81 212 6.0 6.0 0.00 0.00 0.00 77 1015.4
20260905162850 82 167 3.0 5.0 0.00 0.00 0.00 75 1015.4
20260905162349 81 221 3.0 4.0 0.00 0.00 0.00 76 1015.4
20260905161844 80 243 3.0 4.0 0.00 0.00 0.00 79 1015.5
20260905161344 79 221 2.0 3.0 0.00 0.00 0.00 80 1015.5
20260905160842 78 249 0.0 2.0 0.00 0.00 0.00 79 1015.4
20260905160337 78 93 0.0 1.0 0.00 0.00 0.00 79 1015.6
20260905155831 78 6 0.0 1.0 0.00 0.00 0.00 79 1015.7
20260905155331 78 154 0.0 2.0 0.00 0.00 0.00 79 1015.8
20260905154830 79 215 1.0 4.0 0.00 0.00 0.00 79 1015.5
20260905154326 79 293 0.0 4.0 0.00 0.00 0.00 78 1015.3
20260905153821 79 333 2.0 2.0 0.00 0.00 0.00 79 1015.3
20260905153318 79 241 1.0 2.0 0.00 0.00 0.00 78 1015.3
20260905152817 78 131 2.0 3.0 0.00 0.00 0.00 79 1015.5
20260905152316 78 243 3.0 4.0 0.00 0.00 0.00 80 1015.3
20260905151812 77 158 3.0 5.0 0.00 0.00 0.00 82 1015.1
20260905151307 77 171 2.0 5.0 0.00 0.00 0.00 82 1015.4
20260905150807 77 206 3.0 4.0 0.00 0.00 0.00 82 1015.5
20260905150307 76 213 2.0 3.0 0.00 0.00 0.00 84 1015.6
20260905145804 76 222 1.0 4.0 0.00 0.00 0.00 84 1015.6
20260905145259 75 192 3.0 3.0 0.00 0.00 0.00 85 1015.3
20260905144757 75 275 1.0 4.0 0.00 0.00 0.00 83 1015.3
20260905144253 76 223 2.0 4.0 0.00 0.00 0.00 83 1015.4
20260905143752 76 161 0.0 3.0 0.00 0.00 0.00 83 1015.3
20260905143247 77 177 1.0 3.0 0.00 0.00 0.00 82 1015.5
20260905142745 76 240 0.0 2.0 0.00 0.00 0.00 82 1015.4
20260905142240 76 168 1.0 2.0 0.00 0.00 0.00 84 1015.4
20260905141736 75 154 2.0 3.0 0.00 0.00 0.00 85 1015.3
20260905141232 75 193 0.0 1.0 0.00 0.00 0.00 84 1015.2
20260905140727 75 147 1.0 2.0 0.00 0.00 0.00 84 1015.1
20260905140221 75 329 0.0 0.0 0.00 0.00 0.00 84 1015.4
20260905135720 75 322 0.0 1.0 0.00 0.00 0.00 84 1015.0
20260905135217 75 239 1.0 2.0 0.00 0.00 0.00 83 1015.0
20260905134716 75 186 0.0 3.0 0.00 0.00 0.00 85 1014.8
20260905134215 76 178 3.0 7.0 0.00 0.00 0.00 82 1014.6
20260905133716 76 145 4.0 5.0 0.00 0.00 0.00 83 1014.9
20260905133211 76 212 2.0 5.0 0.00 0.00 0.00 84 1014.5
20260905132710 75 202 6.0 6.0 0.00 0.00 0.00 84 1014.5
20260905132205 75 207 3.0 6.0 0.00 0.00 0.00 84 1014.5
20260905131700 75 214 4.0 6.0 0.00 0.00 0.00 85 1014.3
20260905131156 75 195 2.0 5.0 0.00 0.00 0.00 84 1014.5
20260905130656 75 180 2.0 6.0 0.00 0.00 0.00 85 1014.6
20260905130155 75 218 2.0 4.0 0.00 0.00 0.00 86 1014.4
20260905125649 74 183 2.0 3.0 0.00 0.00 0.00 86 1014.5
20260905125145 74 163 4.0 6.0 0.00 0.00 0.00 86 1014.3
20260905124641 74 180 0.0 4.0 0.00 0.00 0.00 88 1014.4
20260905124138 73 182 1.0 4.0 0.00 0.00 0.00 89 1014.6
20260905123632 72 205 2.0 5.0 0.00 0.00 0.00 89 1014.5
20260905123130 72 148 3.0 3.0 0.00 0.00 0.00 90 1014.4
20260905122629 72 200 2.0 3.0 0.00 0.00 0.00 91 1014.3
20260905122124 71 185 1.0 4.0 0.00 0.00 0.00 92 1014.6
20260905121619 71 185 3.0 4.0 0.00 0.00 0.00 92 1014.4
20260905121114 71 192 2.0 4.0 0.00 0.00 0.00 92 1014.5
20260905120613 71 175 2.0 3.0 0.00 0.00 0.00 92 1014.5
20260905120108 71 166 3.0 4.0 0.00 0.00 0.00 92 1014.2
20260905115607 71 181 2.0 5.0 0.00 0.00 0.00 92 1014.4
20260905115102 71 160 2.0 4.0 0.00 0.00 0.00 92 1014.3
20260905114602 71 209 3.0 4.0 0.00 0.00 0.00 92 1014.2
20260905114101 71 177 3.0 5.0 0.00 0.00 0.00 92 1014.1
20260905113555 71 176 5.0 6.0 0.00 0.00 0.00 91 1014.3
20260905113051 71 153 4.0 5.0 0.00 0.00 0.00 91 1014.0
20260905112546 71 159 2.0 4.0 0.00 0.00 0.00 91 1014.1
20260905112042 71 163 2.0 4.0 0.00 0.00 0.00 91 1014.0
20260905111537 71 174 2.0 4.0 0.00 0.00 0.00 91 1013.8
20260905111036 71 164 2.0 4.0 0.00 0.00 0.00 91 1014.0
20260905110535 71 190 2.0 5.0 0.00 0.00 0.00 91 1013.7
20260905110031 71 161 2.0 5.0 0.00 0.00 0.00 91 1013.7
20260905105530 71 194 4.0 4.0 0.00 0.00 0.00 91 1013.9
20260905105029 71 188 2.0 3.0 0.00 0.00 0.00 91 1013.8
20260905104526 71 178 2.0 4.0 0.00 0.00 0.00 91 1013.7
20260905104025 71 186 3.0 4.0 0.00 0.00 0.00 91 1013.8
20260905103520 71 191 2.0 3.0 0.00 0.00 0.00 91 1013.8
20260905103017 71 170 3.0 4.0 0.00 0.00 0.00 91 1013.8
20260905102512 71 184 2.0 4.0 0.00 0.00 0.00 90 1013.8
20260905102008 71 199 2.0 2.0 0.00 0.00 0.00 90 1013.9
20260905101507 71 181 2.0 3.0 0.00 0.00 0.00 90 1013.8
20260905101005 71 193 1.0 1.0 0.00 0.00 0.00 90 1013.8
20260905100501 71 266 1.0 2.0 0.00 0.00 0.00 89 1013.6
20260905100000 72 180 3.0 3.0 0.00 0.00 0.00 89 1013.5
20260905095455 72 187 1.0 3.0 0.00 0.00 0.00 89 1013.8
20260905094951 72 187 2.0 4.0 0.00 0.00 0.00 88 1013.9
20260905094446 72 167 5.0 5.0 0.00 0.00 0.00 88 1013.7
20260905093944 72 200 4.0 4.0 0.00 0.00 0.00 88 1013.8